RH
89 97 96 96 96 96 97 96 96 93 85 53 44 45 51 52 43 58 31 24 38 34 10 8 7 6 6 6 6 5 5 10 16
96 90 96 96 96 97 97 95 93 92 83 72 52 44 46 51 53 57 65 59 47 44 32 15 13 8 7 7 7 6 6 6 12
96 94 93 96 96 97 97 96 95 95 83 82 76 61 49 45 42 57 73 77 76 71 67 53 50 18 9 8 7 7 7 6 6
94 92 95 92 93 96 96 97 98 95 92 82 75 64 60 54 40 31 41 78 80 81 77 73 54 49 30 11 9 8 7 7 7
96 95 97 96 93 90 97 95 96 96 95 69 45 46 51 54 54 48 33 49 67 70 78 89 88 76 68 52 14 10 9 8 8
96 96 97 96 97 96 99 98 98 96 95 86 71 69 73 69 56 49 46 49 55 59 56 66 74 80 74 70 71 41 11 10 10
94 95 89 76 79 93 96 96 97 96 95 94 90 87 83 79 83 77 58 55 62 68 66 52 58 57 60 57 60 62 34 17 15
79 86 77 61 48 65 81 96 95 95 93 88 85 82 82 85 84 95 92 89 88 81 80 70 72 66 61 63 55 50 46 37 24
35 32 36 36 38 69 97 90 94 95 95 96 99 97 93 91 95 98 100 96 99 99 79 70 70 56 58 55 34 22 19 21 24
12 15 17 24 34 82 96 98 95 93 93 91 89 85 88 94 88 81 67 75 87 97 94 82 70 71 52 42 34 28 25 21 20
6 6 10 14 37 45 77 100 97 91 90 87 85 80 83 83 84 90 94 98 82 87 88 87 95 97 96 94 76 63 56 54 40
11 9 13 14 32 99 79 37 81 98 89 97 98 96 96 97 80 85 94 97 94 95 95 93 86 83 81 72 73 87 66 58 60
18 22 28 25 36 78 97 77 96 67 96 94 92 98 96 96 88 98 95 99 96 97 95 96 98 98 91 67 65 65 75 79 52
43 22 14 14 17 50 89 74 58 90 88 97 94 99 97 89 97 97 100 96 80 86 92 96 97 96 96 97 89 80 88 97 96
38 22 15 13 14 17 98 98 87 41 50 60 56 44 35 21 30 50 43 32 28 38 63 34 15 13 17 29 17 13 11 20 32
24 17 16 12 9 12 18 16 96 23 12 12 12 10 9 9 9 9 9 9 9 9 9 9 9 9 10 10 11 11 12 12 12
24 15 16 12 8 8 7 7 11 11 12 12 12 12 12 13 14 14 14 13 12 11 11 11 11 11 11 12 14 15 16 17 17
17 13 12 10 6 6 7 9 11 12 13 14 14 15 15 18 17 17 16 14 14 13 12 12 12 12 12 12 13 14 15 16 15
22 34 26 9 6 6 6 7 9 11 14 17 18 19 19 20 21 20 19 18 17 16 15 14 13 13 13 13 14 14 14 14 15
57 72 66 31 8 8 9 10 12 15 17 20 23 24 25 26 26 26 25 23 21 20 19 18 16 15 15 15 14 14 14 14 15
Wind_Speed
25 20 17 25 24 20 18 19 21 24 22 18 18 17 15 14 13 13 13 13 13 12 11 11 11 10 10 10 11 12 13 14 13
28 29 29 18 19 15 25 25 22 23 22 20 19 18 16 15 14 14 13 13 12 13 13 12 11 11 11 11 11 12 13 14 14
28 28 29 33 25 23 21 22 22 23 24 22 21 19 18 17 16 15 14 13 13 12 13 13 12 12 11 11 12 12 13 14 15
29 25 26 29 26 25 27 26 25 27 26 25 23 22 20 20 19 17 17 16 15 13 14 14 14 13 13 12 12 12 12 14 15
25 23 26 26 25 24 33 32 32 31 29 27 25 23 21 20 20 19 19 18 15 16 16 15 14 15 15 14 14 13 13 13 13
28 27 23 21 28 21 35 34 36 32 33 28 27 25 23 23 21 20 20 20 18 16 19 19 18 17 17 16 14 15 14 14 13
33 32 28 25 25 23 24 30 29 27 25 25 25 24 24 25 24 23 21 23 22 20 19 20 24 22 19 18 18 15 14 14 13
32 33 33 28 27 25 24 25 26 29 26 27 29 29 29 29 29 28 25 22 24 26 23 23 21 19 20 19 17 18 19 19 17
35 33 32 29 29 27 28 28 25 24 25 26 28 28 30 31 31 32 30 26 24 25 26 27 24 21 22 24 24 24 23 22 22
33 34 34 30 29 28 27 28 28 31 30 31 33 32 34 33 33 33 34 34 33 29 30 32 32 30 30 31 30 28 27 26 26
35 35 34 33 31 30 31 31 31 31 31 33 36 36 35 33 35 36 36 35 37 39 39 36 34 34 32 32 32 30 30 29 29
39 37 37 35 34 38 26 30 32 28 27 27 27 26 28 29 31 37 37 36 36 37 37 37 38 39 39 38 36 32 29 29 31
40 40 40 38 37 32 39 33 28 35 33 32 30 32 36 36 36 29 34 34 31 32 31 35 35 36 38 34 35 36 35 33 32
42 42 42 43 44 48 39 46 42 39 43 43 46 43 39 39 39 40 37 38 36 39 37 35 35 34 35 34 32 31 30 30 29
44 44 43 45 48 50 45 35 44 50 48 48 48 49 45 43 42 44 41 40 39 39 39 36 34 33 32 32 32 31 31 30 29
47 46 45 47 48 51 54 54 50 44 46 47 47 46 45 44 44 44 42 42 42 41 41 40 39 38 37 37 37 36 35 35 34
48 48 47 48 49 52 52 52 53 50 48 47 48 48 48 47 47 46 46 46 45 45 45 44 43 43 42 42 41 41 41 40 40
50 49 49 49 50 52 55 54 53 52 50 49 49 49 48 47 48 48 48 48 48 48 48 47 47 47 47 47 47 46 46 46 45
54 48 48 51 52 53 54 55 54 53 52 51 51 51 51 50 50 50 50 50 51 51 51 51 51 51 51 51 50 50 50 50 50
57 60 61 54 55 56 56 56 57 57 56 55 55 54 54 53 53 53 52 53 54 54 54 53 53 54 53 53 53 52 52 52 52
Wind_Direction
198 216 201 207 202 216 208 199 194 198 200 199 203 206 207 205 203 202 201 199 195 190 191 192 194 193 186 186 185 187 190 184 178
202 217 220 204 199 223 220 197 196 197 200 203 202 204 208 207 205 207 208 206 202 199 204 197 195 202 201 196 197 198 199 196 191
210 212 218 219 217 213 224 211 207 206 205 204 204 202 204 209 208 209 214 219 213 210 214 206 201 206 205 207 204 204 202 204 202
208 207 215 218 223 230 227 232 225 212 211 208 209 209 209 210 213 213 217 219 221 218 221 222 218 216 213 212 208 206 208 207 207
210 206 223 220 231 231 232 233 241 219 215 210 214 213 214 219 219 218 220 229 223 222 222 222 219 219 219 221 218 211 208 209 212
223 222 195 217 224 233 225 229 230 224 219 210 215 218 222 224 225 228 227 227 231 228 226 223 221 219 221 223 223 223 220 216 214
237 242 244 252 249 245 230 200 207 207 208 213 219 224 227 232 232 231 235 235 231 231 229 228 228 227 230 225 226 221 224 223 222
249 250 255 257 255 249 248 238 222 215 220 223 223 225 228 230 233 227 224 232 234 232 231 232 227 221 226 217 213 220 223 225 228
250 253 254 250 248 243 231 237 237 231 225 230 234 236 238 237 232 228 225 216 218 219 225 229 231 230 226 228 232 234 235 233 232
243 245 248 249 247 237 236 232 229 233 235 237 238 237 239 238 236 236 234 235 234 230 232 236 237 240 238 240 243 242 242 240 239
242 241 238 239 242 244 237 238 236 237 240 243 240 240 239 241 240 239 239 241 237 243 238 238 241 244 246 244 243 245 246 247 244
243 241 239 232 229 225 237 244 241 228 234 227 233 221 228 221 237 238 238 238 241 245 247 247 246 250 249 250 252 249 246 247 249
238 239 238 235 224 231 224 232 218 234 229 231 235 214 227 236 233 214 236 234 241 242 238 247 247 250 248 242 244 251 255 254 249
237 237 237 236 230 226 235 225 241 231 230 230 228 237 242 240 232 235 234 241 239 236 244 244 243 245 246 246 247 247 247 247 249
238 238 234 236 232 228 224 225 235 228 234 236 235 240 242 242 240 240 239 240 239 239 242 243 243 243 242 244 247 248 250 250 249
238 238 236 233 231 231 229 230 233 236 235 236 237 237 238 238 239 240 240 240 240 240 241 242 243 242 242 242 243 245 247 249 251
237 237 236 234 231 229 228 229 234 236 236 238 240 240 241 242 243 245 245 245 244 244 243 243 243 244 244 245 246 246 247 248 250
237 237 236 233 231 229 229 231 232 234 236 239 242 243 244 246 246 247 248 248 249 249 248 247 247 247 247 247 248 249 251 252 254
232 235 239 237 233 231 232 233 235 237 239 241 244 246 247 249 250 251 252 253 252 252 252 252 252 252 252 251 252 252 253 254 256
231 234 233 237 236 236 235 236 237 239 241 243 245 247 249 250 251 253 254 254 254 254 255 255 254 255 255 255 255 255 256 256 257